Content
SEND FEEDBACK

Daily
Averages
Monthly
Summary
United States of America

PUT IN BAY, OHIO


Home > North America > United States > Ohio
Elevation: 561 feet     Latitude: 41 39N     Longitude: 082 48W

WEATHER
 
SELECT A DAY
Number of Records: 125,373;   Date Range: 12/10/00 - 12/17/14
 
SHARE

PRINT THIS DATA

[ ← Previous Day ]
WEATHER ALMANAC - AUGUST 18, 2013
[ Next Day → ]
[ °C ]   °F
Weather ElementAverageHighLow
Temperature67.4 °F76.5 °F (3:00 pm)58.3 °F (7:00 am)
Dewpoint58.9 °F64.6 °F (10:00 am)55.4 °F (3:00 pm)
Humidity76.2 %96 % (7:00 am)46 % (2:00 pm)
Barometer30.16 in30.20 in (9:00 am)30.10 in (8:00 pm)
Wind Speed3.4 mph9.2 mph (5:00 pm)
Weather ElementAverage
Wind DirectionESE (98.8 °)

Weather ElementTotal
Precipitation---
Cooling Degree Days2.4 (Base 65)
Growing Degree Days17.4 (Base 50)
Averaged from 26 records on August 18, 2013
WEATHER CONDITIONS BREAKOUT
WIND DIRECTION BREAKOUT
WEATHER BY HOUR - AUGUST 18, 2013
[ °C ]   °F
Local TimeTemperatureDewpointHumidityBarometerVisibilityWind DirectionWind SpeedGust SpeedPrecipitationEventsConditions
1:00 AM61.3 °F59.7 °F94 %30.18 inNE (50°)2.3 mph
2:00 AM61.0 °F59.0 °F92 %30.17 inENE (70°)1.2 mph
2:00 AM61.2 °F59.4 °F94 %30.17 inENE (70°)1.2 mph
3:00 AM60.6 °F58.6 °F93 %30.17 inENE (60°)1.2 mph
4:00 AM60.8 °F59.0 °F94 %30.16 inNE (40°)1.2 mph
5:00 AM59.7 °F58.1 °F94 %30.16 inNE (50°)2.3 mph
6:00 AM58.8 °F57.4 °F95 %30.16 inNE (50°)2.3 mph
7:00 AM58.3 °F57.0 °F96 %30.18 inNNE (30°)3.5 mph
8:00 AM60.0 °F59.0 °F94 %30.19 inNNE (30°)2.3 mph
8:00 AM60.1 °F58.8 °F96 %30.19 inNNE (30°)2.3 mph
9:00 AM64.9 °F61.7 °F89 %30.20 inENE (60°)2.3 mph
10:00 AM72.1 °F64.6 °F77 %30.19 inEast (90°)3.5 mph
11:00 AM74.5 °F59.4 °F59 %30.19 inESE (110°)2.3 mph
12:00 PM74.7 °F62.6 °F66 %30.18 inSouth (170°)6.9 mph
1:00 PM76.3 °F62.4 °F62 %30.17 inSSE (160°)8.1 mph
2:00 PM76.0 °F59.0 °F46 %30.16 inSSE (150°)5.8 mph
2:00 PM76.1 °F59.0 °F55 %30.16 inSSE (150°)5.8 mph
3:00 PM76.5 °F55.4 °F48 %30.15 inSSE (160°)6.9 mph
4:00 PM75.7 °F56.3 °F51 %30.13 inSE (140°)5.8 mph
5:00 PM75.4 °F56.7 °F52 %30.12 inSSE (160°)9.2 mph
6:00 PM74.7 °F55.9 °F52 %30.12 inSE (140°)4.6 mph
7:00 PM73.4 °F57.7 °F58 %30.11 inSSE (150°)4.6 mph
8:00 PM70.7 °F59.5 °F68 %30.10 inSSE (160°)1.2 mph
9:00 PM65.7 °F58.8 °F79 %30.11 inWSW (250°)1.2 mph
10:00 PM62.6 °F59.0 °F88 %30.12 inCalm
11:00 PM60.8 °F57.2 °F88 %30.12 inNE (40°)1.2 mph
Hourly data recorded from CXHA, located miles away from Put In Bay, Ohio







STORIES FROM OUR PARTNERS